[[[{"header":{"parameterUnit":"kt","parameterCategory":2,"dx":1,"dy":1,"la1":30.253999710083008,"la2":30.299108505249023,"lo1":-89.0895004272461,"lo2":-89.04439544677734,"nx":28,"ny":28,"refTime":"2022-09-25T21:00:00:Z","depth":"0","parameterNumber":2,"parameterNumberName":"U-component_of_CURRENTS"},"data":[0.2119,0.2125,0.2144,0.2191,0.2241,0.2313,0.2383,0.2546,0.2745,0.3091,0.3417,0.3691,0.4281,0.4867,0.511,0.5074,0.4584,0.4553,0.4191,0.4612,0.4578,0.4546,0.4526,0.4848,0.4847,0.3785,0.3777,0.3771,0.214,0.2159,0.2209,0.2272,0.2323,0.239,0.2553,0.2629,0.2835,0.3119,0.3361,0.3922,0.4345,0.4659,0.5061,0.499,0.4733,0.488,0.4517,0.4376,0.4851,0.4861,0.5261,0.5261,0.5261,0.5261,0.5261,0.5261,0.2166,0.2191,0.2225,0.229,0.2365,0.2466,0.2539,0.2715,0.2897,0.314,0.3334,0.3635,0.4095,0.4434,0.4477,0.4725,0.4355,0.4696,0.45,0.4195,0.4056,0.4486,0.4834,0.4831,0.4829,0.4827,0.4825,0,0.2168,0.2184,0.2239,0.2307,0.2374,0.248,0.2604,0.2686,0.2875,0.3046,0.3293,0.3463,0.3803,0.4055,0.4228,0.4298,0.4017,0.4254,0.4148,0.4181,0.3876,0.3736,0.4038,0.4377,0.4372,0.4368,0.4365,0.4363,0.2123,0.2172,0.2268,0.2303,0.2355,0.2467,0.2543,0.2682,0.2782,0.3041,0.3123,0.3351,0.3526,0.376,0.3851,0.3962,0.3694,0.4127,0.4015,0.3935,0.3749,0.3436,0.331,0.4304,0.4311,0.4317,0.4322,0,0.2082,0.2139,0.2237,0.2346,0.2382,0.2455,0.26,0.2683,0.2813,0.2966,0.3019,0.318,0.3357,0.3398,0.3488,0.3475,0.3508,0.3586,0.3762,0.3795,0.383,0.3655,0.3604,0.3483,0.3786,0.379,0.3794,0,0.2047,0.2127,0.2209,0.2262,0.2368,0.2449,0.2572,0.264,0.2766,0.2878,0.2943,0.3057,0.3082,0.3184,0.3167,0.3306,0.3293,0.3288,0.3303,0.3442,0.3461,0.3398,0.3225,0.3194,0.3193,0.3191,0.319,0,0.1987,0.2106,0.22,0.224,0.236,0.242,0.2481,0.2584,0.2659,0.2783,0.286,0.2945,0.3013,0.3046,0.3067,0.2992,0.3192,0.3092,0.321,0.3216,0.3382,0.3399,0.3593,0.3188,0.3187,0.3187,0.3186,0,0.1968,0.2031,0.2146,0.2261,0.2295,0.2349,0.2471,0.2535,0.2633,0.2676,0.2744,0.2754,0.2852,0.2765,0.2888,0.2822,0.2838,0.2841,0.2849,0.2909,0.2848,0.3186,0.3453,0.3384,0.29,0.2897,0.2895,0,0.1898,0.2005,0.2048,0.2153,0.2218,0.2251,0.2327,0.2386,0.2429,0.251,0.2533,0.2599,0.2536,0.257,0.2616,0.2638,0.271,0.2602,0.2694,0.2697,0.278,0.299,0.3186,0.3394,0.286,0.2864,0.2866,0,0.1842,0.1943,0.1955,0.2,0.2069,0.2111,0.2187,0.226,0.2315,0.2343,0.2435,0.2465,0.2464,0.247,0.2455,0.2504,0.2652,0.2456,0.2456,0.2534,0.2818,0.2927,0.296,0.263,0.2633,0.2636,0.2839,0,0.1834,0.1877,0.1914,0.1968,0.2007,0.2063,0.2096,0.2131,0.2143,0.2163,0.224,0.2245,0.2286,0.2286,0.2264,0.2368,0.2354,0.2306,0.2248,0.2362,0.2435,0.2457,0.2154,0.2151,0.2149,0.2147,0,0,0.1754,0.1814,0.1821,0.187,0.1909,0.19,0.1959,0.1976,0.2014,0.2049,0.2025,0.2084,0.2071,0.2148,0.2186,0.2173,0.2202,0.2138,0.2297,0.2314,0.2329,0.2405,0.2428,0.2143,0.2142,0.2142,0.2141,0,0.1756,0.1766,0.1803,0.1831,0.1867,0.1877,0.1893,0.1922,0.1939,0.1989,0.1971,0.201,0.2011,0.2033,0.2036,0.2138,0.2097,0.2121,0.2209,0.2276,0.2295,0.2313,0.2391,0.2414,0.2135,0.2136,0.2136,0,0.1712,0.1732,0.1746,0.1783,0.18,0.1842,0.1811,0.185,0.1886,0.1836,0.189,0.1884,0.1871,0.1922,0.1936,0.1904,0.2021,0.1948,0.196,0.1954,0.2018,0.2041,0.2062,0.1797,0.1796,0.1796,0,0,0.1703,0.1729,0.1752,0.1782,0.18,0.1804,0.1816,0.1818,0.1839,0.1844,0.1837,0.1835,0.1849,0.1857,0.1854,0.1892,0.1898,0.1911,0.1926,0.194,0.1942,0.2009,0.2031,0.1793,0.1793,0.1793,0,0,0.1702,0.1732,0.172,0.1757,0.178,0.1795,0.1816,0.1806,0.1822,0.1823,0.179,0.1788,0.1829,0.1799,0.1769,0.183,0.176,0.1766,0.186,0.1879,0.1894,0.1899,0.1691,0,0,0,0,0,0.17,0.173,0.1719,0.1727,0.1754,0.1796,0.1798,0.1796,0.1779,0.1796,0.1804,0.1748,0.179,0.1762,0.1755,0.1791,0.1755,0.1762,0.1768,0.1896,0.1917,0.1934,0,0,0,0,0,0,0.1703,0.1713,0.1719,0.1737,0.1743,0.1794,0.1764,0.1763,0.1778,0.1776,0.1752,0.1746,0.1721,0.176,0.1755,0.179,0.1692,0.1758,0.1763,0.1769,0.1903,0.192,0.1935,0,0,0,0,0,0.1706,0.1714,0.1763,0.1735,0.1741,0.1747,0.1763,0.1762,0.1769,0.1745,0.174,0.1771,0.1722,0.1717,0.1757,0.1794,0.1695,0.1693,0.1761,0.1766,0.177,0.1912,0,0,0,0,0,0,0.1708,0.1699,0.1763,0.1765,0.1733,0.1744,0.1747,0.1762,0.1736,0.1734,0.1761,0.176,0.1722,0.1718,0.1715,0.18,0.1697,0.1695,0.1694,0.1765,0.1768,0.1771,0,0,0,0,0,0,0.1695,0.17,0.1764,0.1761,0.1762,0.1741,0.1744,0.173,0.1734,0.1751,0.1751,0.1761,0.1724,0.172,0.1717,0.1695,0.1699,0.1697,0.1696,0.1696,0.1768,0.177,0,0,0,0,0,0,0.1697,0.1701,0.1761,0.1761,0.1761,0.1768,0.1727,0.1749,0.1754,0.1751,0.1754,0.1753,0.1725,0.1722,0.1718,0.1698,0.1696,0.1699,0.1698,0.1697,0.1696,0,0,0,0,0,0,0,0.1698,0.1677,0.1765,0.1761,0.1761,0.1776,0.1775,0.1775,0.1754,0.1754,0.1754,0.1753,0.1707,0.1705,0.1704,0.17,0,0,0.1699,0.1698,0,0,0,0,0,0,0,0,0.1675,0.1677,0.1765,0.1765,0.1766,0.1776,0.1775,0.1775,0.1754,0.1754,0.1754,0.1753,0.1706,0.1705,0.1704,0,0,0,0,0,0,0,0,0,0,0,0,0,0,0,0.1765,0.1765,0,0.1776,0.1775,0.1775,0.1754,0.1754,0.1754,0.1754,0.1706,0.1705,0.1704,0,0,0,0,0,0,0,0,0,0,0,0,0,0,0,0,0,0,0,0,0,0,0,0,0,0,0,0,0,0,0,0,0,0,0,0,0,0,0,0,0,0,0,0,0,0,0,0,0,0,0,0,0,0,0,0,0,0,0,0,0,0,0,0,0,0,0,0,0]}],[{"header":{"parameterUnit":"kt","parameterCategory":2,"dx":1,"dy":1,"la1":30.253999710083008,"la2":30.299108505249023,"lo1":-89.0895004272461,"lo2":-89.04439544677734,"nx":28,"ny":28,"refTime":"2022-09-25T21:00:00:Z","depth":"0","parameterNumber":3,"parameterNumberName":"V-component_of_CURRENTS"},"data":[-0.0472,-0.0408,-0.0379,-0.0239,-0.0157,-0.0059,-0.0009,0.0097,0.0191,0.0395,0.0494,0.0504,0.0139,-0.1181,-0.2201,-0.258,-0.2884,-0.3023,-0.3215,-0.2915,-0.2898,-0.2882,-0.2853,-0.3053,-0.3054,-0.3479,-0.3483,-0.3487,-0.0506,-0.0462,-0.0403,-0.0312,-0.0234,-0.0227,-0.0172,-0.0121,-0.0059,0.0044,0.0049,-0.009,-0.0621,-0.1199,-0.1954,-0.2432,-0.2651,-0.2709,-0.2739,-0.2813,-0.2457,-0.2409,-0.2518,-0.2518,-0.2518,-0.2518,-0.2518,-0.2517,-0.0556,-0.0514,-0.047,-0.0405,-0.0348,-0.0287,-0.0257,-0.0257,-0.0236,-0.0181,-0.0332,-0.0351,-0.0796,-0.1405,-0.1796,-0.2348,-0.2412,-0.2469,-0.2566,-0.2613,-0.2674,-0.2232,-0.2398,-0.2398,-0.2399,-0.24,-0.24,0,-0.0585,-0.0574,-0.0543,-0.047,-0.0441,-0.0409,-0.0407,-0.0398,-0.0462,-0.0474,-0.0536,-0.0623,-0.1039,-0.1333,-0.1788,-0.2048,-0.2344,-0.2299,-0.2416,-0.2409,-0.2418,-0.254,-0.2119,-0.2248,-0.2248,-0.2248,-0.2248,-0.2248,-0.0629,-0.0607,-0.0572,-0.0534,-0.0541,-0.0527,-0.0513,-0.0577,-0.0596,-0.0679,-0.0682,-0.0873,-0.1001,-0.1436,-0.178,-0.2114,-0.2254,-0.2286,-0.2269,-0.2329,-0.2457,-0.2501,-0.2569,-0.2247,-0.2247,-0.2247,-0.2247,0,-0.0658,-0.0658,-0.0625,-0.0628,-0.0621,-0.0597,-0.0624,-0.0633,-0.0702,-0.0733,-0.0756,-0.0935,-0.1144,-0.1385,-0.1687,-0.1862,-0.2177,-0.2195,-0.2064,-0.2106,-0.2321,-0.2395,-0.2653,-0.2753,-0.2382,-0.2383,-0.2385,0,-0.0723,-0.0694,-0.0706,-0.069,-0.0653,-0.0689,-0.0695,-0.0734,-0.0801,-0.0824,-0.0965,-0.1033,-0.1276,-0.1438,-0.1614,-0.1867,-0.1884,-0.2042,-0.2102,-0.2026,-0.202,-0.2158,-0.2234,-0.2083,-0.2082,-0.208,-0.2079,0,-0.0787,-0.077,-0.0738,-0.0738,-0.0752,-0.0757,-0.0766,-0.0836,-0.0852,-0.097,-0.1001,-0.1178,-0.125,-0.1438,-0.1615,-0.1611,-0.186,-0.1892,-0.2046,-0.2048,-0.2053,-0.2051,-0.2219,-0.2078,-0.2077,-0.2077,-0.2076,0,-0.0863,-0.0848,-0.081,-0.0816,-0.0811,-0.0811,-0.0837,-0.0849,-0.0945,-0.1002,-0.1117,-0.1205,-0.1309,-0.1355,-0.1582,-0.1529,-0.166,-0.1754,-0.1765,-0.1811,-0.1862,-0.1936,-0.1974,-0.2076,-0.1888,-0.1886,-0.1884,0,-0.0925,-0.0891,-0.0917,-0.0881,-0.0864,-0.0902,-0.0913,-0.0947,-0.1005,-0.1058,-0.1172,-0.1254,-0.1313,-0.1357,-0.1439,-0.1555,-0.164,-0.155,-0.181,-0.1816,-0.1834,-0.1869,-0.1801,-0.1943,-0.1859,-0.1862,-0.1864,0,-0.0977,-0.0991,-0.0978,-0.098,-0.0988,-0.0967,-0.0983,-0.1009,-0.104,-0.1098,-0.1155,-0.1268,-0.1323,-0.1384,-0.1458,-0.1522,-0.16,-0.1571,-0.1578,-0.1636,-0.1816,-0.1833,-0.1851,-0.1674,-0.1677,-0.1679,-0.1844,0,-0.1055,-0.1047,-0.1023,-0.1034,-0.1027,-0.0994,-0.1023,-0.1032,-0.1074,-0.1123,-0.1211,-0.1296,-0.1397,-0.1425,-0.1469,-0.1545,-0.1579,-0.1621,-0.1649,-0.1645,-0.1716,-0.1731,-0.1568,-0.1569,-0.157,-0.1571,0,0,-0.1111,-0.1098,-0.1116,-0.1103,-0.1091,-0.1115,-0.1095,-0.1126,-0.1158,-0.1188,-0.1202,-0.1373,-0.1429,-0.1532,-0.1514,-0.1551,-0.1617,-0.1554,-0.1632,-0.1638,-0.1644,-0.1712,-0.1725,-0.1573,-0.1573,-0.1573,-0.1574,0,-0.1137,-0.1149,-0.1133,-0.1132,-0.1117,-0.1135,-0.1127,-0.1145,-0.1172,-0.121,-0.1292,-0.135,-0.1448,-0.1508,-0.1563,-0.1561,-0.1649,-0.1585,-0.1534,-0.1637,-0.1642,-0.1647,-0.1713,-0.1725,-0.1576,-0.1576,-0.1576,0,-0.1196,-0.1198,-0.1193,-0.1187,-0.1191,-0.1183,-0.1225,-0.1201,-0.1214,-0.1307,-0.1346,-0.1415,-0.151,-0.1554,-0.1579,-0.1586,-0.1674,-0.1634,-0.1629,-0.1618,-0.1726,-0.1731,-0.1735,-0.1688,-0.1688,-0.1688,0,0,-0.1222,-0.1216,-0.1218,-0.1191,-0.1186,-0.122,-0.1222,-0.1236,-0.1272,-0.1299,-0.1358,-0.1428,-0.1503,-0.1531,-0.1588,-0.1628,-0.1685,-0.1645,-0.1639,-0.1635,-0.1621,-0.1727,-0.1731,-0.1689,-0.1689,-0.1689,0,0,-0.1227,-0.1234,-0.1253,-0.1229,-0.1221,-0.1242,-0.123,-0.1269,-0.1325,-0.1335,-0.1423,-0.1441,-0.1491,-0.153,-0.1527,-0.1597,-0.1621,-0.1624,-0.1569,-0.1564,-0.1559,-0.1528,-0.1584,0,0,0,0,0,-0.1253,-0.1229,-0.1246,-0.1242,-0.1258,-0.1236,-0.1242,-0.127,-0.1313,-0.1308,-0.1377,-0.1423,-0.1536,-0.1535,-0.1554,-0.1566,-0.1695,-0.1694,-0.1693,-0.1634,-0.1627,-0.1621,0,0,0,0,0,0,-0.1251,-0.1247,-0.1245,-0.1261,-0.1263,-0.1239,-0.1289,-0.13,-0.1312,-0.1318,-0.141,-0.1425,-0.1475,-0.153,-0.1546,-0.1556,-0.1578,-0.1695,-0.1694,-0.1693,-0.1631,-0.1626,-0.1621,0,0,0,0,0,-0.1249,-0.1246,-0.1258,-0.1264,-0.1266,-0.1289,-0.1291,-0.1299,-0.1332,-0.1387,-0.1403,-0.1345,-0.1473,-0.1491,-0.154,-0.1547,-0.1567,-0.1573,-0.1694,-0.1693,-0.1693,-0.1629,0,0,0,0,0,0,-0.1248,-0.129,-0.126,-0.1262,-0.1257,-0.1292,-0.1298,-0.1299,-0.1404,-0.1414,-0.1324,-0.1327,-0.1473,-0.1487,-0.1501,-0.154,-0.1558,-0.1564,-0.1568,-0.1693,-0.1693,-0.1692,0,0,0,0,0,0,-0.129,-0.1292,-0.1262,-0.1253,-0.1255,-0.1294,-0.1299,-0.136,-0.1407,-0.1341,-0.1343,-0.1324,-0.1451,-0.1484,-0.1495,-0.159,-0.1551,-0.1557,-0.1561,-0.1564,-0.1693,-0.1692,0,0,0,0,0,0,-0.1292,-0.1294,-0.1254,-0.1256,-0.1258,-0.1299,-0.1353,-0.138,-0.136,-0.1339,-0.136,-0.136,-0.1447,-0.1459,-0.149,-0.158,-0.1587,-0.1552,-0.1556,-0.1558,-0.156,0,0,0,0,0,0,0,-0.1293,-0.1268,-0.1226,-0.1258,-0.126,-0.1277,-0.128,-0.1283,-0.136,-0.136,-0.136,-0.136,-0.1518,-0.1525,-0.1531,-0.1573,0,0,-0.1551,-0.1554,0,0,0,0,0,0,0,0,-0.1269,-0.1269,-0.1226,-0.1225,-0.1224,-0.1278,-0.128,-0.1282,-0.136,-0.136,-0.136,-0.136,-0.152,-0.1525,-0.153,0,0,0,0,0,0,0,0,0,0,0,0,0,0,0,-0.1226,-0.1225,0,-0.1278,-0.128,-0.1282,-0.136,-0.136,-0.136,-0.136,-0.1522,-0.1526,-0.153,0,0,0,0,0,0,0,0,0,0,0,0,0,0,0,0,0,0,0,0,0,0,0,0,0,0,0,0,0,0,0,0,0,0,0,0,0,0,0,0,0,0,0,0,0,0,0,0,0,0,0,0,0,0,0,0,0,0,0,0,0,0,0,0,0,0,0,0,0]}]],[[{"header":{"parameterUnit":"kt","parameterCategory":2,"dx":1,"dy":1,"la1":30.253999710083008,"la2":30.299108505249023,"lo1":-89.0895004272461,"lo2":-89.04439544677734,"nx":28,"ny":28,"refTime":"2022-09-25T21:00:00:Z","depth":"2","parameterNumber":2,"parameterNumberName":"U-component_of_CURRENTS"},"data":[0.2356,0.235,0.2388,0.2365,0.2361,0.2326,0.2338,0.2304,0.2258,0.2069,0.1888,0.1778,0.1677,0.1306,0.1311,0.1331,0.17,0.1392,0.2273,0.2018,0.208,0.2208,0.1866,0,0,0,0,0,0.2393,0.2401,0.2445,0.2433,0.2435,0.2477,0.2552,0.2524,0.2602,0.2655,0.2718,0.2166,0.1972,0.201,0.1813,0.1892,0.1833,0.2089,0.1838,0.1899,0.1957,0.1703,0.1338,0.1338,0.1339,0.1339,0,0,0.2414,0.2429,0.2418,0.246,0.2487,0.2521,0.2549,0.267,0.2774,0.2889,0.308,0.3022,0.2819,0.2574,0.2655,0.2742,0.2875,0.2803,0.2817,0.2843,0.2638,0.2593,0.2516,0.2523,0.2529,0.2534,0.2538,0,0.2407,0.2396,0.2424,0.244,0.2498,0.2544,0.2657,0.2703,0.2893,0.3015,0.3227,0.333,0.3423,0.3202,0.3279,0.3279,0.3373,0.3272,0.3992,0.2644,0.2598,0.2535,0.2548,0.2551,0.2558,0.2563,0.2567,0.257,0.2312,0.2368,0.24,0.242,0.2466,0.2557,0.2628,0.2756,0.2861,0.3109,0.3192,0.3415,0.3519,0.3783,0.3654,0.3723,0.3911,0.3431,0.3146,0.3741,0.3684,0.3659,0.3635,0.2648,0.2638,0.263,0.2623,0,0.2261,0.2288,0.2374,0.2468,0.2489,0.2575,0.2678,0.2795,0.2916,0.3069,0.3105,0.3297,0.3486,0.3618,0.3761,0.373,0.3828,0.3825,0.3328,0.3231,0.3648,0.3624,0.3882,0.3883,0.3883,0.3883,0.3883,0,0.2193,0.2262,0.2327,0.2378,0.2469,0.2574,0.2692,0.2792,0.2931,0.3049,0.3124,0.3253,0.3336,0.3479,0.3496,0.3606,0.3658,0.3542,0.351,0.3024,0.2978,0.3395,0.3371,0.3568,0.3565,0.3563,0.3561,0,0.2121,0.2241,0.2307,0.2347,0.2484,0.2535,0.2617,0.2766,0.2827,0.299,0.3043,0.322,0.3293,0.3343,0.3401,0.3311,0.3593,0.3444,0.3432,0.3431,0.3015,0.297,0.3558,0.3557,0.3556,0.3556,0.3555,0,0.2102,0.2158,0.2262,0.238,0.2406,0.2497,0.2621,0.271,0.2854,0.2878,0.2998,0.3044,0.3189,0.3077,0.3269,0.3169,0.3164,0.3198,0.3206,0.3154,0.302,0.2778,0.2827,0.3272,0.3268,0.3265,0.3262,0,0.2005,0.2123,0.2163,0.2292,0.2357,0.2384,0.2476,0.2563,0.2621,0.2726,0.2793,0.291,0.288,0.2914,0.295,0.3004,0.3064,0.293,0.3033,0.3041,0.2966,0.3102,0.2566,0.2794,0.3219,0.3224,0.3227,0,0.1943,0.2052,0.2062,0.2124,0.2203,0.2253,0.2334,0.2425,0.2509,0.2559,0.2665,0.2791,0.2794,0.2848,0.2857,0.2891,0.2999,0.2805,0.2804,0.2935,0.3122,0.3053,0.3076,0.287,0.2873,0.2876,0.3193,0,0.1926,0.199,0.201,0.2117,0.2163,0.2198,0.2258,0.2294,0.2296,0.2361,0.2476,0.2525,0.2617,0.2633,0.2632,0.2754,0.2762,0.266,0.2609,0.2685,0.2815,0.2842,0.251,0.2509,0.2508,0.2508,0,0,0.1835,0.1915,0.1936,0.2004,0.2036,0.2053,0.2116,0.2176,0.2232,0.2259,0.2205,0.2398,0.2398,0.256,0.2578,0.2562,0.2595,0.2558,0.2636,0.265,0.2664,0.2792,0.2818,0.2506,0.2506,0.2505,0.2505,0,0.1827,0.1853,0.1912,0.1957,0.201,0.2061,0.2054,0.2116,0.2129,0.2199,0.2223,0.2269,0.2336,0.2404,0.2447,0.2536,0.2547,0.2529,0.2606,0.2626,0.2641,0.2655,0.2783,0.2808,0.2503,0.2503,0.2503,0,0.1792,0.1831,0.1861,0.1936,0.1983,0.2058,0.203,0.2066,0.2127,0.2113,0.2178,0.2209,0.2265,0.2339,0.2357,0.2319,0.2485,0.2404,0.2409,0.2478,0.2499,0.2517,0.2532,0.2335,0.2334,0.2333,0,0,0.1786,0.1832,0.1891,0.1937,0.1953,0.202,0.2056,0.2073,0.2106,0.2121,0.2138,0.2168,0.2239,0.2234,0.2298,0.2346,0.2391,0.2384,0.2392,0.2398,0.2469,0.2493,0.2509,0.2331,0.2331,0.2331,0,0,0.1772,0.1838,0.1865,0.1917,0.1968,0.205,0.2079,0.2097,0.214,0.2121,0.2138,0.2139,0.2189,0.2187,0.2157,0.2276,0.2243,0.225,0.2271,0.2281,0.2289,0.2364,0.215,0,0,0,0,0,0.1799,0.1831,0.1857,0.1872,0.1994,0.2056,0.2078,0.2107,0.2088,0.2109,0.212,0.2109,0.218,0.2154,0.2167,0.2214,0.2305,0.231,0.2314,0.2357,0.2368,0.2377,0,0,0,0,0,0,0.1805,0.1823,0.1855,0.1934,0.1961,0.2056,0.2049,0.2063,0.2084,0.2079,0.2116,0.2113,0.2133,0.2148,0.216,0.2204,0.2146,0.2307,0.2311,0.2314,0.2361,0.2369,0.2377,0,0,0,0,0,0.181,0.1824,0.1994,0.1936,0.196,0.2014,0.2046,0.2056,0.2079,0.2112,0.2112,0.2082,0.2137,0.2142,0.2155,0.2199,0.2138,0.2142,0.2309,0.2313,0.2315,0.2365,0,0,0,0,0,0,0.1814,0.1876,0.2002,0.2013,0.188,0.2008,0.2024,0.205,0.211,0.2112,0.208,0.2075,0.2141,0.2144,0.2148,0.2197,0.2132,0.2136,0.2139,0.2312,0.2314,0.2316,0,0,0,0,0,0,0.1868,0.1885,0.2008,0.1935,0.1939,0.2003,0.2016,0.2073,0.2106,0.2076,0.2073,0.2075,0.2074,0.2146,0.2149,0.2245,0.2127,0.2131,0.2134,0.2136,0.2314,0.2316,0,0,0,0,0,0,0.1877,0.1893,0.1934,0.1937,0.194,0.2078,0.2052,0.2147,0.2129,0.2071,0.2116,0.211,0.2073,0.208,0.215,0.2246,0.2245,0.2127,0.213,0.2132,0.2133,0,0,0,0,0,0,0,0.1885,0.1756,0.1918,0.1938,0.1941,0.211,0.2115,0.212,0.2128,0.2123,0.2117,0.2112,0.2104,0.2109,0.2113,0.2246,0,0,0.2127,0.2129,0,0,0,0,0,0,0,0,0.1752,0.1755,0.1918,0.192,0.1921,0.2111,0.2115,0.2119,0.2127,0.2123,0.2118,0.2114,0.2105,0.2109,0.2113,0,0,0,0,0,0,0,0,0,0,0,0,0,0,0,0.1919,0.192,0,0.2111,0.2115,0.2118,0.2126,0.2123,0.2119,0.2116,0.2106,0.2109,0.2112,0,0,0,0,0,0,0,0,0,0,0,0,0,0,0,0,0,0,0,0,0,0,0,0,0,0,0,0,0,0,0,0,0,0,0,0,0,0,0,0,0,0,0,0,0,0,0,0,0,0,0,0,0,0,0,0,0,0,0,0,0,0,0,0,0,0,0,0,0]}],[{"header":{"parameterUnit":"kt","parameterCategory":2,"dx":1,"dy":1,"la1":30.253999710083008,"la2":30.299108505249023,"lo1":-89.0895004272461,"lo2":-89.04439544677734,"nx":28,"ny":28,"refTime":"2022-09-25T21:00:00:Z","depth":"2","parameterNumber":3,"parameterNumberName":"V-component_of_CURRENTS"},"data":[0.1268,0.1393,0.1539,0.172,0.1658,0.18,0.1916,0.2347,0.237,0.2322,0.1991,0.1942,0.1147,0.063,0.0293,-0.0071,-0.0195,-0.0102,0.0105,-0.0089,-0.0102,-0.0422,-0.0322,0,0,0,0,0,0.1238,0.1325,0.145,0.1457,0.1516,0.1446,0.1684,0.2027,0.2334,0.2232,0.2371,0.1749,0.1388,0.0733,0.0138,-0.0096,-0.0211,-0.0236,-0.0429,-0.0442,-0.0456,-0.0389,-0.0311,-0.0313,-0.0315,-0.0316,0,0,0.1197,0.1243,0.1261,0.1263,0.1228,0.1378,0.1607,0.1867,0.2067,0.2118,0.2166,0.1989,0.1456,0.0754,0.0482,0.0066,0.0018,-0.0272,-0.0288,-0.0305,-0.0219,-0.0077,-0.01,-0.01,-0.01,-0.01,-0.01,0,0.1145,0.1091,0.1135,0.1088,0.1147,0.1286,0.1399,0.1503,0.1584,0.1668,0.1778,0.1701,0.1332,0.0956,0.0498,0.0279,-0.0187,-0.0187,-0.0223,-0.055,-0.0417,-0.0443,-0.0438,-0.0523,-0.0525,-0.0527,-0.0528,-0.0529,0.0963,0.105,0.1002,0.1,0.106,0.1106,0.1157,0.1217,0.1394,0.1367,0.1359,0.1075,0.1079,0.0744,0.0364,0.0,-0.0148,-0.0227,-0.0453,-0.0406,-0.0432,-0.0424,-0.0415,-0.0552,-0.0549,-0.0547,-0.0545,0,0.0929,0.0965,0.1055,0.1121,0.1081,0.1057,0.1148,0.1287,0.1213,0.1231,0.1074,0.0948,0.0715,0.0434,-0.002,-0.0121,-0.0358,-0.0392,-0.0297,-0.0318,-0.0453,-0.0438,-0.053,-0.0524,-0.0519,-0.0515,-0.0511,0,0.0944,0.0948,0.1059,0.1091,0.108,0.1109,0.1173,0.1098,0.1101,0.1102,0.0862,0.0967,0.0428,0.0273,-0.0036,-0.0214,-0.0315,-0.0527,-0.0561,-0.0586,-0.0566,-0.0745,-0.0735,-0.0822,-0.0821,-0.0821,-0.082,0,0.0883,0.1031,0.1057,0.1079,0.1185,0.1138,0.1106,0.1037,0.0972,0.0852,0.0841,0.0696,0.052,0.0236,-0.0097,-0.0203,-0.0398,-0.0579,-0.0551,-0.0536,-0.0637,-0.0621,-0.0819,-0.0819,-0.0819,-0.0819,-0.0818,0,0.0974,0.1035,0.1117,0.1187,0.1173,0.1228,0.109,0.1043,0.0914,0.0851,0.0827,0.0682,0.0407,0.0316,-0.0008,0.0028,-0.0248,-0.0431,-0.044,-0.0308,-0.0322,-0.0363,-0.0427,-0.0505,-0.0503,-0.05,-0.0498,0,0.0863,0.1003,0.1044,0.1112,0.1172,0.1014,0.0992,0.0841,0.0781,0.0709,0.0544,0.0499,0.0426,0.0334,0.0173,-0.0115,-0.0269,-0.0176,-0.0483,-0.0488,-0.0247,-0.03,-0.0325,-0.0397,-0.0469,-0.0472,-0.0475,0,0.0771,0.0973,0.0904,0.0979,0.0899,0.0864,0.0792,0.0686,0.0705,0.0533,0.0525,0.0447,0.0337,0.0316,0.0201,-0.0008,-0.0213,-0.0212,-0.0222,-0.0177,-0.0483,-0.0282,-0.0282,-0.0348,-0.0352,-0.0355,-0.0451,0,0.0813,0.0858,0.0848,0.0917,0.0885,0.0816,0.0721,0.0609,0.0496,0.0466,0.0372,0.028,0.0235,0.0177,0.0079,-0.0064,-0.0094,-0.0159,-0.0221,-0.0291,-0.0324,-0.0342,-0.016,-0.0162,-0.0163,-0.0164,0,0,0.0623,0.073,0.0681,0.0743,0.0695,0.0584,0.0617,0.062,0.0475,0.0361,0.0275,0.0294,0.0142,0.0165,0.0025,-0.0005,-0.0094,-0.0081,-0.0268,-0.0278,-0.0289,-0.0322,-0.0337,-0.0167,-0.0167,-0.0168,-0.0168,0,0.0616,0.0578,0.0667,0.0666,0.0584,0.0609,0.0564,0.0527,0.0422,0.0391,0.0297,0.0162,0.0129,0.0022,0.0026,-0.0019,-0.0082,-0.0075,-0.0136,-0.0275,-0.0283,-0.0292,-0.0325,-0.0338,-0.0172,-0.0172,-0.0172,0,0.0561,0.0537,0.0573,0.058,0.0592,0.0665,0.0596,0.0528,0.0534,0.0439,0.0331,0.0271,0.0221,0.011,0.0025,-0.0039,-0.0148,-0.01,-0.0099,-0.0088,-0.0232,-0.0243,-0.0252,-0.0116,-0.0114,-0.0113,0,0,0.0536,0.0571,0.056,0.0567,0.0553,0.0617,0.0653,0.0578,0.0511,0.0488,0.0367,0.023,0.0228,0.0081,0.0041,-0.0038,-0.0094,-0.0082,-0.0085,-0.0087,-0.0077,-0.022,-0.0232,-0.0108,-0.0108,-0.0108,0,0,0.0487,0.0488,0.0486,0.0517,0.0503,0.0579,0.0596,0.0627,0.0591,0.0475,0.0408,0.0348,0.0203,0.0102,0.017,-0.0015,-0.0024,-0.0035,0.0072,0.0068,0.0065,0.0097,0.0111,0,0,0,0,0,0.0457,0.05,0.0501,0.0499,0.0617,0.0632,0.0669,0.0619,0.0601,0.0606,0.0454,0.0407,0.0042,0.0103,0.0104,0.0088,-0.0046,-0.0057,-0.0068,0.0061,0.0057,0.0053,0,0,0,0,0,0,0.0455,0.0453,0.0498,0.0562,0.0584,0.0639,0.0576,0.0581,0.0585,0.0554,0.0462,0.0411,0.0322,0.0103,0.0104,0.0089,0.0111,-0.0051,-0.006,-0.0068,0.006,0.0056,0.0053,0,0,0,0,0,0.0453,0.0451,0.0586,0.0571,0.0592,0.0554,0.0564,0.0564,0.0606,0.046,0.0418,0.051,0.0339,0.0311,0.0104,0.0088,0.0111,0.0111,-0.0057,-0.0064,-0.0071,0.0058,0,0,0,0,0,0,0.0451,0.0612,0.0598,0.061,0.0383,0.0546,0.055,0.055,0.0506,0.0472,0.0498,0.0473,0.0355,0.0329,0.0311,0.0087,0.011,0.0111,0.0111,-0.0062,-0.0068,-0.0073,0,0,0,0,0,0,0.0607,0.0623,0.0608,0.0373,0.0362,0.0538,0.0539,0.059,0.0492,0.0555,0.0531,0.0483,0.0165,0.0346,0.0329,0.0439,0.011,0.011,0.011,0.0111,-0.0067,-0.0072,0,0,0,0,0,0,0.0618,0.0633,0.0374,0.0366,0.0356,0.0549,0.0575,0.0599,0.059,0.0554,0.0543,0.0522,0.017,0.0165,0.0344,0.0464,0.0446,0.011,0.011,0.011,0.011,0,0,0,0,0,0,0,0.0627,0.0477,0.0446,0.036,0.0351,0.0715,0.0726,0.0737,0.0586,0.0567,0.0548,0.0531,0.011,0.011,0.011,0.0485,0,0,0.011,0.011,0,0,0,0,0,0,0,0,0.0476,0.0477,0.0446,0.0444,0.0443,0.0717,0.0726,0.0734,0.0582,0.0567,0.0552,0.0538,0.011,0.011,0.011,0,0,0,0,0,0,0,0,0,0,0,0,0,0,0,0.0445,0.0444,0,0.0718,0.0725,0.0733,0.058,0.0568,0.0555,0.0544,0.011,0.011,0.011,0,0,0,0,0,0,0,0,0,0,0,0,0,0,0,0,0,0,0,0,0,0,0,0,0,0,0,0,0,0,0,0,0,0,0,0,0,0,0,0,0,0,0,0,0,0,0,0,0,0,0,0,0,0,0,0,0,0,0,0,0,0,0,0,0,0,0,0,0]}]],[[{"header":{"parameterUnit":"kt","parameterCategory":2,"dx":1,"dy":1,"la1":30.253999710083008,"la2":30.299108505249023,"lo1":-89.0895004272461,"lo2":-89.04439544677734,"nx":28,"ny":28,"refTime":"2022-09-25T21:00:00:Z","depth":"4","parameterNumber":2,"parameterNumberName":"U-component_of_CURRENTS"},"data":[-0.0138,-0.0074,-0.0006,0.0101,0.0174,0.0262,0.031,0.034,0.036,0.0414,0.0388,0.0457,0.0416,0.0414,0.0404,0.0409,0.0298,0.0432,0.0434,0.0215,0.02,0.0186,0.0163,0,0,0,0,0,-0.0115,-0.0062,0.0014,0.0127,0.0219,0.0276,0.035,0.0372,0.0435,0.0446,0.0458,0.0448,0.0438,0.0386,0.0414,0.0391,0.0295,0.0425,0.0238,0.0206,0.0189,0.0172,0,0,0,0,0,0,-0.0063,-0.0032,0.0065,0.0155,0.0243,0.0303,0.0325,0.0377,0.0405,0.0452,0.0438,0.0406,0.0396,0.038,0.035,0.036,0.0302,0.0264,0.0245,0.0228,0.0228,0.0318,0.0468,0,0,0,0,0,-0.0013,0.0039,0.0086,0.0201,0.0258,0.0307,0.0361,0.0384,0.041,0.0432,0.0421,0.0402,0.0402,0.0317,0.0348,0.0257,0.013,0.0172,0.016,0.002,0.0078,0.0059,0.0047,0.0124,0.0122,0.0121,0.012,0,0.0043,0.0075,0.0182,0.0224,0.0257,0.0302,0.0326,0.0344,0.0361,0.0365,0.0368,0.0365,0.0322,0.0289,0.0192,0.0142,0.01,0.013,-0.0018,0.005,0.0037,0.0028,0.0021,0.0106,0.0107,0.0109,0.011,0,0.0063,0.0127,0.0176,0.0242,0.0267,0.0283,0.0319,0.0321,0.032,0.0325,0.0322,0.0257,0.0223,0.0159,0.0047,0.0018,-0.0039,-0.0025,-0.0104,-0.0118,-0.0002,-0.0005,0.0084,0.0089,0.0093,0.0097,0.01,0,0.0104,0.013,0.0211,0.0229,0.0266,0.0264,0.0278,0.0256,0.0243,0.0246,0.0185,0.0158,0.0041,0.0011,-0.0083,-0.009,-0.0152,-0.0157,-0.016,-0.0325,-0.0325,-0.0328,-0.0329,-0.0325,-0.0325,-0.0326,-0.0327,0,0.0101,0.0153,0.0196,0.0207,0.0231,0.0232,0.0231,0.0196,0.0182,0.0142,0.0142,0.0058,0.003,-0.0059,-0.0136,-0.0182,-0.0207,-0.0289,-0.0199,-0.0189,-0.0333,-0.0333,-0.0328,-0.0328,-0.0328,-0.0328,-0.0329,0,0.0104,0.0142,0.0184,0.0208,0.0211,0.0216,0.0196,0.0173,0.0125,0.0095,0.0044,-0.0006,-0.0074,-0.0133,-0.0219,-0.0225,-0.0263,-0.0316,-0.0315,-0.02,-0.022,-0.0267,-0.0281,-0.0282,-0.0282,-0.0282,-0.0283,0,0.0101,0.0146,0.0148,0.017,0.0188,0.0164,0.0145,0.0113,0.0076,0.0047,-0.0043,-0.009,-0.0152,-0.0181,-0.0236,-0.031,-0.0321,-0.0338,-0.0346,-0.0344,-0.0214,-0.0202,-0.0386,-0.0287,-0.0286,-0.0286,-0.0286,0,0.0086,0.0127,0.0129,0.0148,0.0145,0.0142,0.011,0.0089,0.0079,0.0008,-0.0012,-0.0139,-0.0161,-0.0204,-0.0268,-0.0312,-0.0321,-0.0335,-0.0337,-0.0267,-0.0341,-0.022,-0.0205,-0.0383,-0.0384,-0.0384,-0.0288,0,0.0101,0.0118,0.012,0.0138,0.0131,0.0133,0.0109,0.0081,0.0049,0.0028,-0.0052,-0.0139,-0.0198,-0.0249,-0.0286,-0.0339,-0.0315,-0.0363,-0.034,-0.0368,-0.032,-0.0318,-0.0346,-0.0346,-0.0346,-0.0346,0,0,0.0091,0.0112,0.0109,0.012,0.0124,0.0109,0.0116,0.0086,0.0043,0.0022,0.0002,-0.0127,-0.0188,-0.0262,-0.0284,-0.0327,-0.0317,-0.03,-0.0363,-0.0364,-0.0366,-0.0322,-0.032,-0.0346,-0.0346,-0.0346,-0.0346,0,0.0098,0.0101,0.0112,0.0113,0.0115,0.0108,0.0108,0.009,0.0067,0.0015,-0.0028,-0.0091,-0.0179,-0.0227,-0.0264,-0.0322,-0.0313,-0.035,-0.0324,-0.0363,-0.0364,-0.0366,-0.0323,-0.0321,-0.0346,-0.0346,-0.0346,0,0.0101,0.0111,0.0115,0.012,0.0116,0.0117,0.011,0.0098,0.0085,0.004,-0.0007,-0.0064,-0.0131,-0.02,-0.0233,-0.0224,-0.0293,-0.0298,-0.03,-0.0273,-0.0311,-0.0314,-0.0316,-0.0281,-0.028,-0.028,0,0,0.0109,0.0117,0.0123,0.0123,0.0123,0.0114,0.0107,0.01,0.0069,0.0052,0.001,-0.0047,-0.011,-0.0141,-0.0198,-0.0259,-0.0249,-0.0288,-0.0291,-0.0293,-0.0268,-0.0307,-0.031,-0.0278,-0.0278,-0.0278,0,0,0.0108,0.0124,0.013,0.013,0.0129,0.0116,0.0106,0.0101,0.0057,0.0047,0.0006,-0.0009,-0.0079,-0.0108,-0.0079,-0.019,-0.018,-0.0188,-0.0161,-0.0166,-0.0169,-0.0122,-0.0085,0,0,0,0,0,0.0128,0.0125,0.0131,0.0133,0.0124,0.0116,0.0112,0.0103,0.0099,0.0092,0.0042,0.0033,-0.0104,-0.0079,-0.0095,-0.0121,-0.0254,-0.0259,-0.0262,-0.0244,-0.0249,-0.0252,0,0,0,0,0,0,0.0129,0.0131,0.0131,0.0122,0.012,0.0116,0.0113,0.011,0.01,0.01,0.0041,0.0031,0.0001,-0.0073,-0.0087,-0.0111,-0.0081,-0.0256,-0.026,-0.0263,-0.0246,-0.0249,-0.0252,0,0,0,0,0,0.0129,0.0131,0.0127,0.0121,0.0119,0.0109,0.0114,0.0111,0.0097,0.0053,0.0044,0.0094,0.0002,-0.0013,-0.0081,-0.0104,-0.0071,-0.0076,-0.0258,-0.0261,-0.0264,-0.0247,0,0,0,0,0,0,0.0129,0.0113,0.0125,0.0123,0.0129,0.0108,0.0106,0.0112,0.0049,0.0042,0.0103,0.0103,0.0002,-0.001,-0.0021,-0.01,-0.0063,-0.0069,-0.0072,-0.026,-0.0263,-0.0265,0,0,0,0,0,0,0.0112,0.0112,0.0124,0.0135,0.0135,0.0107,0.0106,0.0051,0.0046,0.01,0.01,0.0104,0.0008,-0.0008,-0.0016,-0.0102,-0.0058,-0.0063,-0.0066,-0.0068,-0.0262,-0.0264,0,0,0,0,0,0,0.0111,0.0111,0.0135,0.0135,0.0134,0.0108,0.0055,0.0038,0.009,0.0101,0.0091,0.0092,0.0009,0.0001,-0.0013,-0.0095,-0.01,-0.0058,-0.0061,-0.0064,-0.0065,0,0,0,0,0,0,0,0.011,0.0125,0.0143,0.0134,0.0133,0.0108,0.0106,0.0105,0.009,0.0091,0.0091,0.0092,-0.0029,-0.0035,-0.004,-0.0089,0,0,-0.0057,-0.006,0,0,0,0,0,0,0,0,0.0124,0.0125,0.0143,0.0143,0.0143,0.0107,0.0107,0.0106,0.009,0.0091,0.0091,0.0092,-0.0031,-0.0035,-0.004,0,0,0,0,0,0,0,0,0,0,0,0,0,0,0,0.0143,0.0143,0,0.0107,0.0107,0.0106,0.009,0.0091,0.0091,0.0091,-0.0032,-0.0036,-0.0039,0,0,0,0,0,0,0,0,0,0,0,0,0,0,0,0,0,0,0,0,0,0,0,0,0,0,0,0,0,0,0,0,0,0,0,0,0,0,0,0,0,0,0,0,0,0,0,0,0,0,0,0,0,0,0,0,0,0,0,0,0,0,0,0,0,0,0,0,0]}],[{"header":{"parameterUnit":"kt","parameterCategory":2,"dx":1,"dy":1,"la1":30.253999710083008,"la2":30.299108505249023,"lo1":-89.0895004272461,"lo2":-89.04439544677734,"nx":28,"ny":28,"refTime":"2022-09-25T21:00:00:Z","depth":"4","parameterNumber":3,"parameterNumberName":"V-component_of_CURRENTS"},"data":[0.0117,0.0117,0.0112,0.0111,0.0105,0.0088,0.0071,0.0033,0.0027,-0.0012,-0.0061,-0.0099,-0.0189,-0.017,-0.0281,-0.03,-0.0311,-0.0436,-0.0437,-0.0464,-0.0465,-0.0466,-0.052,0,0,0,0,0,0.0128,0.012,0.0107,0.0071,0.0073,0.0057,0.002,-0.0019,-0.0058,-0.0045,-0.0093,-0.0121,-0.0207,-0.0265,-0.0295,-0.0351,-0.0407,-0.0387,-0.0407,-0.0464,-0.0466,-0.0518,0,0,0,0,0,0,0.0122,0.0114,0.0082,0.0055,0.0037,0.0015,-0.0027,-0.0051,-0.008,-0.0133,-0.0127,-0.0207,-0.0254,-0.0328,-0.036,-0.0399,-0.0396,-0.0394,-0.0399,-0.0401,-0.043,-0.0421,-0.0336,0,0,0,0,0,0.012,0.0083,0.0059,0.003,-0.0015,-0.005,-0.0104,-0.0106,-0.0176,-0.021,-0.0226,-0.0276,-0.0301,-0.0372,-0.0404,-0.0424,-0.0507,-0.0483,-0.0484,-0.0512,-0.051,-0.0507,-0.0511,-0.0471,-0.0471,-0.0471,-0.0471,0,0.0095,0.008,0.001,-0.001,-0.0057,-0.0126,-0.017,-0.0253,-0.0269,-0.0327,-0.0309,-0.0346,-0.0386,-0.0406,-0.0474,-0.0499,-0.0501,-0.0487,-0.0518,-0.0513,-0.0508,-0.0513,-0.0517,-0.0472,-0.0472,-0.0472,-0.0472,0,0.0081,0.004,0.0005,-0.008,-0.0112,-0.016,-0.0247,-0.029,-0.0364,-0.0381,-0.0384,-0.0452,-0.0469,-0.0524,-0.0526,-0.0543,-0.0545,-0.0527,-0.0546,-0.054,-0.0517,-0.052,-0.0474,-0.0474,-0.0473,-0.0473,-0.0473,0,0.0047,0.0017,-0.0058,-0.007,-0.0129,-0.0202,-0.0279,-0.0356,-0.0429,-0.0442,-0.0518,-0.0527,-0.0581,-0.0589,-0.0598,-0.0587,-0.0584,-0.0573,-0.0563,-0.0596,-0.0599,-0.0574,-0.0575,-0.0573,-0.0574,-0.0575,-0.0575,0,0.0022,-0.0033,-0.0066,-0.0082,-0.0166,-0.0227,-0.029,-0.0401,-0.0448,-0.0526,-0.0542,-0.0593,-0.0598,-0.0605,-0.0617,-0.0624,-0.0605,-0.0609,-0.0579,-0.0578,-0.0578,-0.0578,-0.0576,-0.0576,-0.0576,-0.0576,-0.0577,0,-0.0013,-0.0037,-0.0073,-0.0139,-0.0164,-0.021,-0.0333,-0.0395,-0.0494,-0.0548,-0.0597,-0.0629,-0.0646,-0.0664,-0.0662,-0.0676,-0.0648,-0.0644,-0.0641,-0.0625,-0.062,-0.0557,-0.0594,-0.0595,-0.0595,-0.0596,-0.0596,0,-0.0014,-0.0048,-0.0088,-0.0137,-0.0163,-0.0249,-0.0316,-0.0396,-0.048,-0.0549,-0.0603,-0.0647,-0.0674,-0.0688,-0.0693,-0.0696,-0.0672,-0.0699,-0.0625,-0.0623,-0.06,-0.0633,-0.0684,-0.0604,-0.0603,-0.0602,-0.0602,0,-0.0014,-0.0078,-0.0092,-0.0115,-0.0193,-0.0225,-0.0315,-0.0389,-0.0449,-0.0536,-0.0587,-0.0657,-0.0674,-0.0684,-0.0698,-0.0691,-0.068,-0.0675,-0.0673,-0.0616,-0.0637,-0.0641,-0.0636,-0.0686,-0.0685,-0.0685,-0.0607,0,-0.0007,-0.0054,-0.0081,-0.0138,-0.0179,-0.0222,-0.0286,-0.0369,-0.045,-0.048,-0.0575,-0.0622,-0.0657,-0.0679,-0.0679,-0.0691,-0.0669,-0.0674,-0.0614,-0.0657,-0.0619,-0.0615,-0.0651,-0.0651,-0.065,-0.0649,0,0,0.0008,-0.0034,-0.0093,-0.0119,-0.0146,-0.0221,-0.0249,-0.0308,-0.0396,-0.0436,-0.0468,-0.057,-0.0594,-0.062,-0.0638,-0.0664,-0.0641,-0.0612,-0.0651,-0.0652,-0.0652,-0.0618,-0.0614,-0.0648,-0.0648,-0.0648,-0.0648,0,0.0026,-0.0042,-0.0078,-0.0106,-0.0168,-0.0196,-0.0228,-0.0292,-0.0346,-0.043,-0.0453,-0.051,-0.0571,-0.0568,-0.0575,-0.0653,-0.0595,-0.0663,-0.0655,-0.0647,-0.0648,-0.0649,-0.0615,-0.0613,-0.0646,-0.0646,-0.0646,0,0.0047,0.0012,-0.0016,-0.0079,-0.012,-0.0149,-0.0174,-0.0239,-0.0277,-0.0299,-0.0395,-0.0432,-0.0448,-0.0495,-0.0525,-0.0495,-0.0538,-0.0547,-0.0551,-0.0532,-0.052,-0.0523,-0.0525,-0.0484,-0.0484,-0.0483,0,0,0.0061,0.0013,-0.0023,-0.0074,-0.01,-0.0149,-0.0184,-0.0212,-0.0266,-0.0303,-0.0343,-0.0386,-0.042,-0.0439,-0.0473,-0.0517,-0.0488,-0.0526,-0.0533,-0.054,-0.0524,-0.0514,-0.0518,-0.0481,-0.0481,-0.0481,0,0,0.0078,0.003,0.0005,-0.0052,-0.0088,-0.0117,-0.0163,-0.0197,-0.0274,-0.0302,-0.0311,-0.0321,-0.04,-0.0397,-0.0367,-0.043,-0.04,-0.0408,-0.0416,-0.0426,-0.0433,-0.0403,-0.0307,0,0,0,0,0,0.0081,0.0041,0.0019,0.0005,-0.0069,-0.0106,-0.0117,-0.0158,-0.0197,-0.0232,-0.0291,-0.0263,-0.0375,-0.0349,-0.0357,-0.0366,-0.0449,-0.0455,-0.046,-0.0484,-0.0494,-0.0503,0,0,0,0,0,0,0.0076,0.0061,0.0021,-0.0007,-0.0024,-0.0105,-0.0107,-0.0119,-0.0194,-0.0201,-0.0256,-0.0261,-0.0248,-0.0343,-0.035,-0.0359,-0.0304,-0.0451,-0.0456,-0.046,-0.0488,-0.0496,-0.0503,0,0,0,0,0,0.0072,0.006,-0.0054,-0.0007,-0.0022,-0.0079,-0.0107,-0.0118,-0.0195,-0.0191,-0.0202,-0.0231,-0.0247,-0.0256,-0.0347,-0.0355,-0.0299,-0.0301,-0.0454,-0.0458,-0.0461,-0.0492,0,0,0,0,0,0,0.0069,0.0047,-0.0057,-0.0063,-0.0007,-0.0077,-0.009,-0.0116,-0.0183,-0.0194,-0.0159,-0.0162,-0.0246,-0.0254,-0.0261,-0.0355,-0.0294,-0.0297,-0.0299,-0.0457,-0.046,-0.0463,0,0,0,0,0,0,0.0054,0.0043,-0.006,-0.0059,-0.0065,-0.0075,-0.0087,-0.0115,-0.0183,-0.0147,-0.0152,-0.0159,-0.0231,-0.0252,-0.0257,-0.03,-0.0291,-0.0294,-0.0296,-0.0297,-0.0459,-0.0462,0,0,0,0,0,0,0.0049,0.0039,-0.0058,-0.0062,-0.0068,-0.0137,-0.01,-0.0175,-0.0185,-0.0144,-0.0186,-0.0187,-0.0228,-0.0235,-0.0255,-0.0295,-0.0299,-0.0291,-0.0293,-0.0294,-0.0295,0,0,0,0,0,0,0,0.0044,0.0118,-0.002,-0.0065,-0.007,-0.0115,-0.0117,-0.0119,-0.0185,-0.0186,-0.0186,-0.0187,-0.0275,-0.0278,-0.0281,-0.0291,0,0,-0.0291,-0.0292,0,0,0,0,0,0,0,0,0.0121,0.0119,-0.0021,-0.0022,-0.0023,-0.0116,-0.0117,-0.0119,-0.0185,-0.0186,-0.0186,-0.0187,-0.0276,-0.0278,-0.0281,0,0,0,0,0,0,0,0,0,0,0,0,0,0,0,-0.0021,-0.0021,0,-0.0116,-0.0117,-0.0118,-0.0185,-0.0186,-0.0186,-0.0186,-0.0277,-0.0279,-0.0281,0,0,0,0,0,0,0,0,0,0,0,0,0,0,0,0,0,0,0,0,0,0,0,0,0,0,0,0,0,0,0,0,0,0,0,0,0,0,0,0,0,0,0,0,0,0,0,0,0,0,0,0,0,0,0,0,0,0,0,0,0,0,0,0,0,0,0,0,0]}]]]